Location: Axtheid
(49.6213°N, 11.8205°E)
Time: 00:14:28
(UTC+00:00)

Envisat - Pass Details

Date: 24 January 2022
Orbit: 764 x 765 km, 98.2° (Epoch: 22 May)

Event Time Altitude Azimuth Distance (km) Brightness Sun altitude
Rises 16:50:42 0° 223° (SW) 3,221 7.4 -9.1°
Reaches altitude 10° 16:54:43 10° 255° (WSW) 2,302 7.1 -9.7°
Maximum altitude 16:56:30 12° 275° (W) 2,187 6.5 -10.0°
Drops below altitude 10° 16:58:16 10° 296° (WNW) 2,308 6.2 -10.3°
Sets 17:02:20 0° 328° (NNW) 3,241 6.4 -10.9°
